Weather History for CYHU - October, 2012

Change the Weather History Date:

Wednesday, October 24, 2012

  Actual Average Record
Temperature  
Mean Temperature 42 °F -  
Max Temperature 53 °F 45 °F 66 °F (1998)
Min Temperature 30 °F 30 °F 26 °F (2004)
Degree Days  
Heating Degree Days 24    
Moisture  
Dew Point 32 °F    
Average Humidity 67    
Maximum Humidity 87    
Minimum Humidity 33    
Precipitation  
Precipitation 0.00 in 0.13 in - ()
Sea Level Pressure  
Sea Level Pressure 30.22 in    
Wind  
Wind Speed 5 mph ()    
Max Wind Speed 8 mph    
Max Gust Speed -    
Visibility 9.1 miles    
Events Rain    
Averages and records for this station are not official NWS values.
T = Trace of Precipitation, MM = Missing Value Source: Averaged Metar Reports

Daily Weather History Graph

Daily Weather History Graph

Search for Another Location

Airport or City:

Trip Planner

Search our weather history database for the weather conditions in past years. The results will help you decide how hot, cold, wet, or windy it might be!

Date:

Astronomy

Oct. 24, 2012 Rise Set
Actual Time 7:22 AM EDT 5:52 PM EDT
Civil Twilight 6:52 AM EDT 6:22 PM EDT
Nautical Twilight 6:17 AM EDT 6:57 PM EDT
Astronomical Twilight 5:43 AM EDT 7:31 PM EDT
Moon 3:18 PM EDT (10/24) 2:00 AM EDT (10/24)
Length of Visible Light 11h 30m
Length of Day
10h 29m
Waxing Gibbous, 76% of the Moon is Illuminated
Oct 24
Waxing Gibbous
Oct 29
Full
Nov 6
Last Quarter
Nov 13
New
Nov 20
First Quarter

Hourly Weather History & Observations

Time (EDT) Temp. Windchill Dew Point Humidity Pressure Visibility Wind Dir Wind Speed Gust Speed Precip Events Conditions
12:00 AM 39.2 °F 34.2 °F 32.0 °F 75% 30.19 in 9.0 mi NNE 6.9 mph - N/A   Clear
1:00 AM 37.4 °F 32.8 °F 30.2 °F 75% 30.20 in 9.0 mi North 5.8 mph - N/A   Clear
2:00 AM 37 °F - 31 °F 72% 30.21 in 10 mi NE 3.5 mph - -  
2:00 AM 37.4 °F 33.8 °F 32.0 °F 81% 30.21 in 9.0 mi NE 4.6 mph - N/A   Clear
3:00 AM 37.4 °F - 30.2 °F 75% 30.22 in 9.0 mi NNE 2.3 mph - N/A   Clear
4:00 AM 35.6 °F - 30.2 °F 81% 30.23 in 9.0 mi North 2.3 mph - N/A   Clear
5:00 AM 32.0 °F 27.5 °F 26.6 °F 80% 30.23 in 9.0 mi North 4.6 mph - N/A   Clear
6:00 AM 32.0 °F - 28.4 °F 87% 30.24 in 9.0 mi NNE 2.3 mph - N/A   Clear
7:00 AM 30.2 °F 24.3 °F 26.6 °F 86% 30.24 in 9.0 mi NNE 5.8 mph - N/A   Clear
8:00 AM 32.0 °F 24.8 °F 28.4 °F 87% 30.25 in 9.0 mi NNE 8.1 mph - N/A   Clear
10:00 AM 42.8 °F 38.0 °F 32.0 °F 66% 30.26 in 9.0 mi NE 8.1 mph - N/A   Clear
11:00 AM 44.6 °F 40.2 °F 32.0 °F 61% 30.26 in 9.0 mi NNE 8.1 mph - N/A   Mostly Cloudy
12:00 PM 46.4 °F 42.4 °F 32.0 °F 57% 30.24 in 9.0 mi NE 8.1 mph - N/A   Overcast
1:00 PM 48.2 °F - 32.0 °F 54% 30.22 in 9.0 mi NE 4.6 mph - N/A   Overcast
2:00 PM 50 °F - 30 °F 33% 30.20 in 10 mi NE 5.8 mph - -  
2:00 PM 50.0 °F - 30.2 °F 47% 30.20 in 9.0 mi NNE 5.8 mph - N/A   Clear
3:00 PM 53.6 °F - 32.0 °F 44% 30.18 in 9.0 mi NE 5.8 mph - N/A   Clear
4:00 PM 51.8 °F - 32.0 °F 47% 30.18 in 9.0 mi NNE 5.8 mph - N/A   Mostly Cloudy
5:00 PM 50.0 °F - 33.8 °F 54% 30.18 in 9.0 mi NE 6.9 mph - N/A   Overcast
6:00 PM 48.2 °F - 33.8 °F 58% 30.20 in 9.0 mi NE 6.9 mph - N/A   Overcast
6:52 PM 48.2 °F - 37.4 °F 66% 30.20 in 9.0 mi NE 4.6 mph - N/A Rain Light Rain
7:00 PM 46.4 °F 44.3 °F 37.4 °F 71% 30.21 in 9.0 mi NE 4.6 mph - N/A Rain Light Rain
7:04 PM 46.4 °F 43.5 °F 37.4 °F 71% 30.21 in 9.0 mi NNE 5.8 mph - N/A   Overcast
8:00 PM 46.4 °F 43.5 °F 35.6 °F 66% 30.21 in 9.0 mi NNE 5.8 mph - N/A   Overcast
9:00 PM 46.4 °F 42.9 °F 33.8 °F 62% 30.22 in 9.0 mi NE 6.9 mph - N/A   Overcast
10:00 PM 44.6 °F 42.2 °F 33.8 °F 66% 30.22 in 9.0 mi NE 4.6 mph - N/A   Overcast
11:00 PM 41.0 °F 36.4 °F 33.8 °F 76% 30.22 in 9.0 mi NNE 6.9 mph - N/A   Overcast